STARLINK-33874, 63825

Orbit data source: Space-Track

STARLINK-33874, 63825 is a payload satellite owned by SpaceX/Seattle (US) in LEO that was launched on Sun, 04 May 2025 UTC via an FALCON 9 launch vehicle from the Air Force Eastern Test Range (AFETR). Payload-class satellites include a variety of spacecraft equipped with specific instruments for various scientific and technological missions. These include communications satellites like Starlink; space stations such as the ISS; scientific satellites like the Hubble; Earth observation satellites from companies like Planet Labs, Umbra, and HawkEye 360; GPS; miniature CubeSats for education and research; and military/defense satellites.

Loading next visibility...
Identifier
63825, 2025-092X
Orbit
LEO
Country
Flag of USUS
Related business
Manufacturer
SpaceX/Seattle
Mission
Operational Commercial Communications
Bus & Motor
STARLINK V2MO, Unknown motor
Mass
575 kg wet, ~530 kg dry
Launch date (UTC)
2025-05-04 (5 months ago)
Launch vehicle
FALCON 9
Launch site
Air Force Eastern Test Range (AFETR)
Object type
Payload
Rocket body
Debris
Shape & HBR
Box + 1 Pan, 14.5 m
Radar Cross Section
41.120 m², Large (>1 m²)

Expand to show TLE details & history
Last TLE update: 1 day ago

TLE from 1 day ago
0 STARLINK-33874
1 63825U 25092X   25259.76016193  .00029906  00000-0  10919-2 0  9996
2 63825  42.9999  74.8637 0001967 263.9090  96.1538 15.27579965 22063
Epoch: 2025-09-16T18:14Z
TLE epoch observation values (Epoch: 2025-09-16T18:14:37.99Z)
Latitude
Longitude
165.25957°
Altitude
482.97 km
Speed
7.626 km/s
True Right ascension
04h 59m 27s
True Declination
0° 00' 00"
Sunlit
Object was in daylight at epoch
Visualization orbit readout
Latitude
Unknown
Longitude
Unknown
Altitude
Unknown
Speed
Unknown
Apparent Right ascension
Unknown
Apparent Declination
Unknown
Sunlit
N/A
Visualization observer readout
Local Sidereal Time
20:49:27
Azimuth
Unknown
Elevation
Unknown
Doppler factor
Unknown
Orbital elements
Apogee altitude
486.344 km
Perigee altitude
483.644 km
Semi-major axis
6,863.131 km
Eccentricity
0.0002
Inclination
42.9999°
RAAN
74.8637°
Arg. of periapsis
263.909°
True anomaly
96.17621°
Mean anomaly
96.1538°
Eccentric anomaly
96.165°
Mean motion
3.81733 °/min
Orbital period
94.31 mins
BSTAR
0.0010919
Loading maneuver chart data...
Computing Atmospheric mass density...
Loading historical data...
Loading historical data...
Loading historical data...
Loading historical data...
Loading historical data...
Loading historical data...
Loading historical data...

Documentation

Showing up to 5 results
|